KG5FQT Weather Reports


time (UTC)temp
C
wind
direction
speed
KPH
gust
KPH
rain 1hr
cm
rain 24hr
cm
rain mn
cm
humidity
%
barometer
mb
20260505083036 16 0.0 0.0 0.00 0.00 0.00 88 1012.8
20260505080036 16 0.0 0.0 0.00 0.00 0.00 88 1012.7
20260505073016 16 0.0 0.0 0.00 0.00 0.00 87 1012.7
20260505070016 16 0.0 0.0 0.00 0.00 0.00 87 1013.1
20260505063015 16 0.0 0.0 0.00 0.00 0.00 86 1013.5
20260505060016 16 0.0 0.0 0.00 0.00 0.00 82 1014.1
20260505053016 17 0.0 0.0 0.00 0.00 0.00 82 1014.1
20260505040017 18 0.0 3.2 0.00 0.00 0.00 78 1014.3
20260505033017 18 0.0 8.0 0.00 0.00 0.00 76 1014.3
20260505030037 18 225 1.6 9.7 0.00 0.00 0.00 75 1014.1
20260505023017 18 225 1.6 6.4 0.00 0.00 0.00 73 1014.1
20260505020017 19 225 1.6 11.3 0.00 0.00 0.00 70 1014.0
20260505013017 20 0.0 6.4 0.00 0.00 0.00 66 1013.5
20260505010016 21 0.0 8.0 0.00 0.00 0.00 62 1013.6
20260505003037 21 225 1.6 12.9 0.00 0.00 0.00 59 1013.9
20260505000016 22 225 1.6 11.3 0.00 0.00 0.00 53 1014.1
20260504233057 23 225 1.6 11.3 0.00 0.00 0.00 47 1014.1
20260504230016 25 203 4.8 14.5 0.00 0.00 0.00 44 1014.3
20260504223016 25 225 4.8 16.1 0.00 0.00 0.00 41 1014.5
20260504220016 25 248 4.8 19.3 0.00 0.00 0.00 41 1014.8
20260504213036 26 248 3.2 14.5 0.00 0.00 0.00 43 1014.7
20260504210036 26 248 4.8 19.3 0.00 0.00 0.00 44 1015.1
20260504203016 26 248 4.8 30.6 0.00 0.00 0.00 47 1015.4
20260504200016 26 248 3.2 17.7 0.00 0.00 0.00 47 1015.9
20260504193017 25 225 6.4 20.9 0.00 0.00 0.00 46 1016.5
20260504190016 25 225 4.8 14.5 0.00 0.00 0.00 47 1016.7
20260504183016 25 225 4.8 16.1 0.00 0.00 0.00 48 1017.0
20260504180016 25 203 4.8 16.1 0.00 0.00 0.00 46 1017.6
20260504173015 25 203 4.8 19.3 0.00 0.00 0.00 43 1017.7